TimeEDT,TemperatureF,Dew PointF,Humidity,Sea Level PressureIn,VisibilityMPH,Wind Direction,Wind SpeedMPH,Gust SpeedMPH,PrecipitationIn,Events,Conditions,WindDirDegrees,DateUTC
12:56 AM,42.1,28.0,58,30.10,10.0,NNW,11.5,-,N/A,,Overcast,330,2013-03-29 04:56:00
1:56 AM,42.1,28.0,58,30.10,10.0,NW,9.2,-,N/A,,Overcast,310,2013-03-29 05:56:00
2:56 AM,39.9,27.0,60,30.10,10.0,NW,10.4,-,N/A,,Scattered Clouds,310,2013-03-29 06:56:00
3:56 AM,39.9,26.1,58,30.10,10.0,NW,9.2,-,N/A,,Clear,310,2013-03-29 07:56:00
4:56 AM,37.9,26.1,62,30.10,10.0,WNW,8.1,-,N/A,,Clear,300,2013-03-29 08:56:00
5:56 AM,37.9,26.1,62,30.10,10.0,NW,9.2,-,N/A,,Clear,310,2013-03-29 09:56:00
6:56 AM,37.0,26.1,65,30.11,10.0,NW,11.5,-,N/A,,Clear,310,2013-03-29 10:56:00
7:56 AM,39.9,27.0,60,30.12,10.0,NW,11.5,-,N/A,,Clear,310,2013-03-29 11:56:00
8:56 AM,43.0,27.0,53,30.12,10.0,NW,9.2,-,N/A,,Clear,320,2013-03-29 12:56:00
9:56 AM,46.9,27.0,46,30.12,10.0,NNW,11.5,-,N/A,,Clear,340,2013-03-29 13:56:00
10:56 AM,48.0,27.0,44,30.12,10.0,WNW,5.8,-,N/A,,Clear,300,2013-03-29 14:56:00
11:56 AM,51.1,25.0,36,30.11,10.0,WNW,10.4,18.4,N/A,,Partly Cloudy,290,2013-03-29 15:56:00
12:56 PM,51.1,25.0,36,30.09,10.0,WNW,15.0,19.6,N/A,,Mostly Cloudy,300,2013-03-29 16:56:00
1:56 PM,52.0,24.1,34,30.06,10.0,WNW,11.5,20.7,N/A,,Mostly Cloudy,290,2013-03-29 17:56:00
2:56 PM,51.1,24.1,35,30.05,10.0,WNW,15.0,-,N/A,,Mostly Cloudy,300,2013-03-29 18:56:00
3:56 PM,51.1,24.1,35,30.05,10.0,NW,13.8,-,N/A,,Mostly Cloudy,310,2013-03-29 19:56:00
4:56 PM,51.1,24.1,35,30.05,10.0,WNW,15.0,-,N/A,,Mostly Cloudy,300,2013-03-29 20:56:00
5:56 PM,48.0,25.0,41,30.06,10.0,WNW,17.3,23.0,N/A,,Mostly Cloudy,300,2013-03-29 21:56:00
6:56 PM,46.0,27.0,47,30.08,10.0,WNW,16.1,21.9,N/A,,Mostly Cloudy,300,2013-03-29 22:56:00
7:56 PM,45.0,24.1,44,30.09,10.0,NW,12.7,-,N/A,,Clear,310,2013-03-29 23:56:00
8:56 PM,44.1,25.0,47,30.10,10.0,NW,8.1,-,N/A,,Clear,310,2013-03-30 00:56:00
9:56 PM,43.0,26.1,51,30.11,10.0,WNW,9.2,-,N/A,,Partly Cloudy,290,2013-03-30 01:56:00
10:56 PM,42.1,27.0,55,30.12,10.0,WNW,11.5,-,N/A,,Partly Cloudy,300,2013-03-30 02:56:00
11:56 PM,42.1,26.1,53,30.12,10.0,NW,9.2,-,N/A,,Mostly Cloudy,310,2013-03-30 03:56:00